Time,TemperatureF,DewpointF,PressureIn,WindDirection,WindDirectionDegrees,WindSpeedMPH,WindSpeedGustMPH,Humidity,HourlyPrecipIn,Conditions,Clouds,dailyrainin,SoftwareType,DateUTC
2013-01-01 00:00:00,26.3,22.1,30.18,West,262,1.0,4.0,84,0.00,,---,0.00,VWS V14.01,2013-01-01 08:00:00,
2013-01-01 00:02:00,24.6,21.6,30.18,WNW,284,0.0,1.0,88,0.00,,---,0.00,VWS V14.01,2013-01-01 08:02:00,
2013-01-01 00:07:00,24.6,21.3,30.18,WNW,283,0.0,1.0,87,0.00,,---,0.00,VWS V14.01,2013-01-01 08:07:00,
2013-01-01 00:12:00,24.7,21.7,30.18,West,271,0.0,1.0,88,0.00,,---,0.00,VWS V14.01,2013-01-01 08:12:00,
2013-01-01 00:17:00,25.0,22.0,30.18,West,273,0.0,1.0,88,0.00,,---,0.00,VWS V14.01,2013-01-01 08:17:00,
2013-01-01 00:22:00,24.8,21.5,30.17,SW,233,2.0,2.0,87,0.00,,---,0.00,VWS V14.01,2013-01-01 08:22:00,
2013-01-01 00:27:00,24.8,21.5,30.18,West,262,1.0,2.0,87,0.00,,---,0.00,VWS V14.01,2013-01-01 08:27:00,
2013-01-01 00:30:00,24.8,21.5,30.18,West,264,1.0,2.0,87,0.00,,---,0.00,VWS V14.01,2013-01-01 08:30:00,
2013-01-01 00:32:00,25.5,22.5,30.18,WSW,240,0.0,3.0,88,0.00,,---,0.00,VWS V14.01,2013-01-01 08:32:00,
2013-01-01 00:37:00,26.0,22.7,30.18,WSW,257,0.0,3.0,87,0.00,,---,0.00,VWS V14.01,2013-01-01 08:37:00,
2013-01-01 00:42:00,26.1,22.2,30.18,West,263,0.0,3.0,85,0.00,,---,0.00,VWS V14.01,2013-01-01 08:42:00,
2013-01-01 00:47:00,26.1,22.2,30.18,WNW,283,2.0,3.0,85,0.00,,---,0.00,VWS V14.01,2013-01-01 08:47:00,
2013-01-01 00:52:00,26.1,22.2,30.18,West,278,1.0,3.0,85,0.00,,---,0.00,VWS V14.01,2013-01-01 08:52:00,
2013-01-01 00:57:00,26.3,22.1,30.18,West,259,1.0,4.0,84,0.00,,---,0.00,VWS V14.01,2013-01-01 08:57:00,
2013-01-01 01:00:00,26.3,22.1,30.18,West,262,1.0,4.0,84,0.00,,---,0.00,VWS V14.01,2013-01-01 09:00:00,
2013-01-01 01:02:00,26.4,22.0,30.18,West,259,0.0,2.0,83,0.00,,---,0.00,VWS V14.01,2013-01-01 09:02:00,
2013-01-01 01:07:00,26.4,22.0,30.19,WNW,288,0.0,3.0,83,0.00,,---,0.00,VWS V14.01,2013-01-01 09:07:00,
2013-01-01 01:12:00,26.5,22.0,30.19,West,263,0.0,3.0,83,0.00,,---,0.00,VWS V14.01,2013-01-01 09:12:00,
2013-01-01 01:17:00,26.3,21.9,30.19,WSW,243,0.0,3.0,83,0.00,,---,0.00,VWS V14.01,2013-01-01 09:17:00,
2013-01-01 01:22:00,26.5,22.3,30.19,WSW,246,1.0,3.0,84,0.00,,---,0.00,VWS V14.01,2013-01-01 09:22:00,
2013-01-01 01:27:00,26.3,21.9,30.20,WSW,257,1.0,3.0,83,0.00,,---,0.00,VWS V14.01,2013-01-01 09:27:00,
2013-01-01 01:30:00,26.3,21.9,30.20,WSW,243,2.0,5.0,83,0.00,,---,0.00,VWS V14.01,2013-01-01 09:30:00,
2013-01-01 01:32:00,26.1,21.9,30.20,West,262,3.0,4.0,84,0.00,,---,0.00,VWS V14.01,2013-01-01 09:32:00,
2013-01-01 01:37:00,26.1,22.2,30.20,WSW,249,0.0,4.0,85,0.00,,---,0.00,VWS V14.01,2013-01-01 09:37:00,
2013-01-01 01:42:00,26.5,22.9,30.20,West,259,0.0,4.0,86,0.00,,---,0.00,VWS V14.01,2013-01-01 09:42:00,
2013-01-01 01:47:00,26.8,22.9,30.20,West,259,0.0,4.0,85,0.00,,---,0.00,VWS V14.01,2013-01-01 09:47:00,
2013-01-01 01:52:00,27.0,22.8,30.20,West,273,0.0,4.0,84,0.00,,---,0.00,VWS V14.01,2013-01-01 09:52:00,
2013-01-01 01:57:00,26.3,21.9,30.20,NW,319,1.0,4.0,83,0.00,,---,0.00,VWS V14.01,2013-01-01 09:57:00,
2013-01-01 02:00:00,26.2,21.8,30.20,NW,319,1.0,4.0,83,0.00,,---,0.00,VWS V14.01,2013-01-01 10:00:00,
2013-01-01 02:02:00,25.5,21.1,30.20,NW,318,0.0,0.0,83,0.00,,---,0.00,VWS V14.01,2013-01-01 10:02:00,
2013-01-01 02:07:00,25.0,20.9,30.20,NW,318,0.0,0.0,84,0.00,,---,0.00,VWS V14.01,2013-01-01 10:07:00,
2013-01-01 02:12:00,24.8,20.9,30.20,WNW,297,0.0,1.0,85,0.00,,---,0.00,VWS V14.01,2013-01-01 10:12:00,
2013-01-01 02:17:00,24.8,20.9,30.20,WNW,297,0.0,1.0,85,0.00,,---,0.00,VWS V14.01,2013-01-01 10:17:00,
2013-01-01 02:22:00,25.2,21.6,30.20,West,276,0.0,1.0,86,0.00,,---,0.00,VWS V14.01,2013-01-01 10:22:00,
2013-01-01 02:27:00,25.8,22.2,30.20,West,274,0.0,1.0,86,0.00,,---,0.00,VWS V14.01,2013-01-01 10:27:00,
2013-01-01 02:30:00,25.8,22.2,30.20,West,274,0.0,1.0,86,0.00,,---,0.00,VWS V14.01,2013-01-01 10:30:00,
2013-01-01 02:32:00,25.5,21.4,30.20,SSW,200,0.0,0.0,84,0.00,,---,0.00,VWS V14.01,2013-01-01 10:32:00,
2013-01-01 02:37:00,25.2,21.0,30.20,SSE,167,0.0,2.0,84,0.00,,---,0.00,VWS V14.01,2013-01-01 10:37:00,
2013-01-01 02:42:00,25.4,21.5,30.19,SSE,165,0.0,2.0,85,0.00,,---,0.00,VWS V14.01,2013-01-01 10:42:00,
2013-01-01 02:47:00,25.8,22.2,30.20,ESE,115,0.0,2.0,86,0.00,,---,0.00,VWS V14.01,2013-01-01 10:47:00,
2013-01-01 02:52:00,26.4,22.5,30.19,ESE,115,0.0,2.0,85,0.00,,---,0.00,VWS V14.01,2013-01-01 10:52:00,
2013-01-01 02:57:00,26.5,22.6,30.19,ESE,122,0.0,2.0,85,0.00,,---,0.00,VWS V14.01,2013-01-01 10:57:00,
2013-01-01 03:00:00,26.7,22.8,30.19,ESE,122,0.0,2.0,85,0.00,,---,0.00,VWS V14.01,2013-01-01 11:00:00,
2013-01-01 03:02:00,26.8,22.6,30.19,NNE,15,0.0,1.0,84,0.00,,---,0.00,VWS V14.01,2013-01-01 11:02:00,
2013-01-01 03:07:00,26.3,21.9,30.19,NNE,15,0.0,1.0,83,0.00,,---,0.00,VWS V14.01,2013-01-01 11:07:00,
2013-01-01 03:12:00,26.1,21.6,30.19,NNE,27,0.0,1.0,83,0.00,,---,0.00,VWS V14.01,2013-01-01 11:12:00,
2013-01-01 03:17:00,25.9,21.5,30.19,NNE,27,0.0,1.0,83,0.00,,---,0.00,VWS V14.01,2013-01-01 11:17:00,
2013-01-01 03:22:00,25.9,21.5,30.18,NNE,30,0.0,1.0,83,0.00,,---,0.00,VWS V14.01,2013-01-01 11:22:00,
2013-01-01 03:27:00,25.9,21.5,30.19,NNE,30,0.0,1.0,83,0.00,,---,0.00,VWS V14.01,2013-01-01 11:27:00,
2013-01-01 03:30:00,25.9,21.5,30.19,NNE,30,0.0,1.0,83,0.00,,---,0.00,VWS V14.01,2013-01-01 11:30:00,
2013-01-01 03:32:00,26.1,21.6,30.18,NNE,30,0.0,0.0,83,0.00,,---,0.00,VWS V14.01,2013-01-01 11:32:00,
2013-01-01 03:37:00,26.2,21.5,30.18,NNE,30,0.0,0.0,82,0.00,,---,0.00,VWS V14.01,2013-01-01 11:37:00,
2013-01-01 03:42:00,26.3,21.0,30.19,NNE,30,0.0,0.0,80,0.00,,---,0.00,VWS V14.01,2013-01-01 11:42:00,
2013-01-01 03:47:00,26.2,20.9,30.19,SE,124,1.0,1.0,80,0.00,,---,0.00,VWS V14.01,2013-01-01 11:47:00,
2013-01-01 03:52:00,26.1,20.5,30.19,SE,131,0.0,1.0,79,0.00,,---,0.00,VWS V14.01,2013-01-01 11:52:00,
2013-01-01 03:57:00,25.8,19.9,30.19,SE,131,0.0,1.0,78,0.00,,---,0.00,VWS V14.01,2013-01-01 11:57:00,
2013-01-01 04:00:00,25.7,19.8,30.19,SE,131,0.0,1.0,78,0.00,,---,0.00,VWS V14.01,2013-01-01 12:00:00,
2013-01-01 04:02:00,25.5,19.3,30.19,SSE,163,0.0,0.0,77,0.00,,---,0.00,VWS V14.01,2013-01-01 12:02:00,
2013-01-01 04:07:00,25.5,19.3,30.19,SSW,203,1.0,2.0,77,0.00,,---,0.00,VWS V14.01,2013-01-01 12:07:00,
2013-01-01 04:12:00,24.8,18.3,30.19,SSE,150,2.0,3.0,76,0.00,,---,0.00,VWS V14.01,2013-01-01 12:12:00,
2013-01-01 04:17:00,24.8,18.6,30.19,SSE,150,2.0,3.0,77,0.00,,---,0.00,VWS V14.01,2013-01-01 12:17:00,
2013-01-01 04:22:00,25.2,18.7,30.19,SSE,158,2.0,3.0,76,0.00,,---,0.00,VWS V14.01,2013-01-01 12:22:00,
2013-01-01 04:27:00,25.5,18.7,30.18,SSE,158,0.0,3.0,75,0.00,,---,0.00,VWS V14.01,2013-01-01 12:27:00,
2013-01-01 04:30:00,25.5,18.7,30.18,SSE,150,0.0,3.0,75,0.00,,---,0.00,VWS V14.01,2013-01-01 12:30:00,
2013-01-01 04:32:00,25.7,18.6,30.18,SE,129,0.0,1.0,74,0.00,,---,0.00,VWS V14.01,2013-01-01 12:32:00,
2013-01-01 04:37:00,25.1,17.4,30.18,NNW,330,2.0,2.0,72,0.00,,---,0.00,VWS V14.01,2013-01-01 12:37:00,
2013-01-01 04:42:00,23.4,16.4,30.19,NW,325,0.0,2.0,74,0.00,,---,0.00,VWS V14.01,2013-01-01 12:42:00,
2013-01-01 04:47:00,22.7,17.2,30.20,WNW,294,1.0,2.0,79,0.00,,---,0.00,VWS V14.01,2013-01-01 12:47:00,
2013-01-01 04:52:00,22.7,17.8,30.19,WNW,301,0.0,2.0,81,0.00,,---,0.00,VWS V14.01,2013-01-01 12:52:00,
2013-01-01 04:57:00,22.7,17.5,30.19,WNW,297,0.0,2.0,80,0.00,,---,0.00,VWS V14.01,2013-01-01 12:57:00,
2013-01-01 05:00:00,22.7,17.5,30.19,WNW,297,0.0,2.0,80,0.00,,---,0.00,VWS V14.01,2013-01-01 13:00:00,
2013-01-01 05:02:00,22.7,18.0,30.19,WNW,296,0.0,0.0,82,0.00,,---,0.00,VWS V14.01,2013-01-01 13:02:00,
2013-01-01 05:07:00,23.0,18.3,30.18,WNW,297,0.0,0.0,82,0.00,,---,0.00,VWS V14.01,2013-01-01 13:07:00,
2013-01-01 05:12:00,23.4,19.0,30.19,West,281,1.0,1.0,83,0.00,,---,0.00,VWS V14.01,2013-01-01 13:12:00,
2013-01-01 05:17:00,23.8,19.4,30.19,WSW,255,0.0,2.0,83,0.00,,---,0.00,VWS V14.01,2013-01-01 13:17:00,
2013-01-01 05:22:00,24.2,19.8,30.19,West,266,1.0,2.0,83,0.00,,---,0.00,VWS V14.01,2013-01-01 13:22:00,
2013-01-01 05:27:00,24.6,20.2,30.19,WSW,243,0.0,2.0,83,0.00,,---,0.00,VWS V14.01,2013-01-01 13:27:00,
2013-01-01 05:30:00,24.6,20.2,30.19,WSW,243,0.0,2.0,83,0.00,,---,0.00,VWS V14.01,2013-01-01 13:30:00,
2013-01-01 05:32:00,24.8,20.4,30.19,WSW,240,0.0,0.0,83,0.00,,---,0.00,VWS V14.01,2013-01-01 13:32:00,
2013-01-01 05:37:00,25.1,20.7,30.18,SW,219,0.0,1.0,83,0.00,,---,0.00,VWS V14.01,2013-01-01 13:37:00,
2013-01-01 05:42:00,25.4,21.2,30.18,SW,219,0.0,1.0,84,0.00,,---,0.00,VWS V14.01,2013-01-01 13:42:00,
2013-01-01 05:47:00,25.7,21.3,30.19,WSW,243,1.0,1.0,83,0.00,,---,0.00,VWS V14.01,2013-01-01 13:47:00,
2013-01-01 05:52:00,26.1,21.4,30.19,WSW,249,0.0,1.0,82,0.00,,---,0.00,VWS V14.01,2013-01-01 13:52:00,
2013-01-01 05:57:00,26.5,21.5,30.20,WSW,249,0.0,2.0,81,0.00,,---,0.00,VWS V14.01,2013-01-01 13:57:00,
2013-01-01 06:00:00,26.6,21.6,30.20,WSW,253,1.0,2.0,81,0.00,,---,0.00,VWS V14.01,2013-01-01 14:00:00,
2013-01-01 06:02:00,26.9,21.6,30.20,WSW,246,0.0,2.0,80,0.00,,---,0.00,VWS V14.01,2013-01-01 14:02:00,
2013-01-01 06:07:00,27.3,22.0,30.20,WSW,255,1.0,2.0,80,0.00,,---,0.00,VWS V14.01,2013-01-01 14:07:00,
2013-01-01 06:12:00,27.6,21.6,30.20,WSW,243,0.0,2.0,78,0.00,,---,0.00,VWS V14.01,2013-01-01 14:12:00,
2013-01-01 06:17:00,28.0,21.7,30.21,WSW,243,0.0,2.0,77,0.00,,---,0.00,VWS V14.01,2013-01-01 14:17:00,
2013-01-01 06:22:00,28.2,21.6,30.21,SW,231,0.0,2.0,76,0.00,,---,0.00,VWS V14.01,2013-01-01 14:22:00,
2013-01-01 06:27:00,28.5,21.9,30.21,SW,231,0.0,2.0,76,0.00,,---,0.00,VWS V14.01,2013-01-01 14:27:00,
2013-01-01 06:30:00,28.5,21.9,30.21,SW,231,0.0,2.0,76,0.00,,---,0.00,VWS V14.01,2013-01-01 14:30:00,
2013-01-01 06:32:00,28.6,22.0,30.21,SW,231,0.0,0.0,76,0.00,,---,0.00,VWS V14.01,2013-01-01 14:32:00,
2013-01-01 06:37:00,28.8,22.2,30.22,SW,231,0.0,0.0,76,0.00,,---,0.00,VWS V14.01,2013-01-01 14:37:00,
2013-01-01 06:42:00,29.0,22.7,30.22,SW,231,0.0,0.0,77,0.00,,---,0.00,VWS V14.01,2013-01-01 14:42:00,
2013-01-01 06:47:00,29.2,22.9,30.22,SW,233,0.0,0.0,77,0.00,,---,0.00,VWS V14.01,2013-01-01 14:47:00,
2013-01-01 06:52:00,29.3,23.0,30.22,SW,233,0.0,1.0,77,0.00,,---,0.00,VWS V14.01,2013-01-01 14:52:00,
2013-01-01 06:57:00,29.2,23.2,30.22,SW,233,0.0,1.0,78,0.00,,---,0.00,VWS V14.01,2013-01-01 14:57:00,
2013-01-01 07:00:00,29.2,23.2,30.22,SW,235,1.0,1.0,78,0.00,,---,0.00,VWS V14.01,2013-01-01 15:00:00,
2013-01-01 07:02:00,28.9,23.2,30.23,NW,307,2.0,3.0,79,0.00,,---,0.00,VWS V14.01,2013-01-01 15:02:00,
2013-01-01 07:07:00,28.6,23.5,30.23,NW,307,0.0,3.0,81,0.00,,---,0.00,VWS V14.01,2013-01-01 15:07:00,
2013-01-01 07:12:00,28.6,23.5,30.23,NW,308,1.0,3.0,81,0.00,,---,0.00,VWS V14.01,2013-01-01 15:12:00,
2013-01-01 07:17:00,28.6,23.5,30.23,NW,309,1.0,3.0,81,0.00,,---,0.00,VWS V14.01,2013-01-01 15:17:00,
2013-01-01 07:22:00,28.8,23.7,30.22,NW,309,0.0,3.0,81,0.00,,---,0.00,VWS V14.01,2013-01-01 15:22:00,
2013-01-01 07:27:00,28.9,23.5,30.23,NW,311,0.0,3.0,80,0.00,,---,0.00,VWS V14.01,2013-01-01 15:27:00,
2013-01-01 07:30:00,29.0,23.6,30.22,NW,311,0.0,3.0,80,0.00,,---,0.00,VWS V14.01,2013-01-01 15:30:00,
2013-01-01 07:32:00,29.1,23.4,30.23,NW,311,0.0,0.0,79,0.00,,---,0.00,VWS V14.01,2013-01-01 15:32:00,
2013-01-01 07:37:00,29.2,23.5,30.23,NW,311,0.0,0.0,79,0.00,,---,0.00,VWS V14.01,2013-01-01 15:37:00,
2013-01-01 07:42:00,29.3,23.3,30.23,NW,310,0.0,0.0,78,0.00,,---,0.00,VWS V14.01,2013-01-01 15:42:00,
2013-01-01 07:47:00,29.4,23.4,30.23,West,271,0.0,1.0,78,0.00,,---,0.00,VWS V14.01,2013-01-01 15:47:00,
2013-01-01 07:52:00,29.5,23.5,30.23,West,271,0.0,1.0,78,0.00,,---,0.00,VWS V14.01,2013-01-01 15:52:00,
2013-01-01 07:57:00,29.6,23.6,30.23,West,271,0.0,1.0,78,0.00,,---,0.00,VWS V14.01,2013-01-01 15:57:00,
2013-01-01 08:00:00,29.6,23.6,30.23,West,271,0.0,1.0,78,0.00,,---,0.00,VWS V14.01,2013-01-01 16:00:00,
2013-01-01 08:02:00,29.8,23.8,30.23,SSW,212,0.0,0.0,78,0.00,,---,0.00,VWS V14.01,2013-01-01 16:02:00,
2013-01-01 08:07:00,30.2,24.2,30.23,SW,231,0.0,1.0,78,0.00,,---,0.00,VWS V14.01,2013-01-01 16:07:00,
2013-01-01 08:12:00,30.7,24.7,30.23,SW,232,0.0,2.0,78,0.00,,---,0.00,VWS V14.01,2013-01-01 16:12:00,
2013-01-01 08:17:00,31.0,24.6,30.23,WSW,243,0.0,2.0,77,0.00,,---,0.00,VWS V14.01,2013-01-01 16:17:00,
2013-01-01 08:22:00,31.3,24.6,30.23,West,262,0.0,2.0,76,0.00,,---,0.00,VWS V14.01,2013-01-01 16:22:00,
2013-01-01 08:27:00,31.6,24.9,30.23,WSW,243,0.0,2.0,76,0.00,,---,0.00,VWS V14.01,2013-01-01 16:27:00,
2013-01-01 08:30:00,31.7,25.0,30.23,WSW,242,0.0,2.0,76,0.00,,---,0.00,VWS V14.01,2013-01-01 16:30:00,
2013-01-01 08:32:00,31.9,25.2,30.24,WSW,252,0.0,1.0,76,0.00,,---,0.00,VWS V14.01,2013-01-01 16:32:00,
2013-01-01 08:37:00,32.2,25.2,30.23,WSW,252,0.0,1.0,75,0.00,,---,0.00,VWS V14.01,2013-01-01 16:37:00,
2013-01-01 08:42:00,32.7,25.3,30.23,SSW,204,0.0,1.0,74,0.00,,---,0.00,VWS V14.01,2013-01-01 16:42:00,
2013-01-01 08:47:00,33.2,25.2,30.24,SSE,165,0.0,2.0,72,0.00,,---,0.00,VWS V14.01,2013-01-01 16:47:00,
2013-01-01 08:52:00,33.8,25.4,30.24,SW,221,0.0,2.0,71,0.00,,---,0.00,VWS V14.01,2013-01-01 16:52:00,
2013-01-01 08:57:00,34.2,25.1,30.24,WSW,249,0.0,2.0,69,0.00,,---,0.00,VWS V14.01,2013-01-01 16:57:00,
2013-01-01 09:00:00,34.3,24.9,30.24,West,277,0.0,2.0,68,0.00,,---,0.00,VWS V14.01,2013-01-01 17:00:00,
2013-01-01 09:02:00,34.5,25.4,30.24,WNW,285,2.0,2.0,69,0.00,,---,0.00,VWS V14.01,2013-01-01 17:02:00,
2013-01-01 09:07:00,34.6,25.8,30.24,NW,311,0.0,3.0,70,0.00,,---,0.00,VWS V14.01,2013-01-01 17:07:00,
2013-01-01 09:12:00,34.6,26.2,30.24,NW,311,0.0,3.0,71,0.00,,---,0.00,VWS V14.01,2013-01-01 17:12:00,
2013-01-01 09:17:00,34.8,26.0,30.24,NW,311,0.0,3.0,70,0.00,,---,0.00,VWS V14.01,2013-01-01 17:17:00,
2013-01-01 09:22:00,35.2,26.1,30.24,NW,310,0.0,3.0,69,0.00,,---,0.00,VWS V14.01,2013-01-01 17:22:00,
2013-01-01 09:27:00,35.7,26.2,30.24,NW,311,0.0,3.0,68,0.00,,---,0.00,VWS V14.01,2013-01-01 17:27:00,
2013-01-01 09:30:00,35.9,26.4,30.25,NW,311,0.0,3.0,68,0.00,,---,0.00,VWS V14.01,2013-01-01 17:30:00,
2013-01-01 09:32:00,36.3,26.4,30.25,NW,312,1.0,1.0,67,0.00,,---,0.00,VWS V14.01,2013-01-01 17:32:00,
2013-01-01 09:37:00,36.4,26.5,30.25,NW,312,0.0,1.0,67,0.00,,---,0.00,VWS V14.01,2013-01-01 17:37:00,
2013-01-01 09:42:00,36.6,26.3,30.25,NW,312,0.0,1.0,66,0.00,,---,0.00,VWS V14.01,2013-01-01 17:42:00,
2013-01-01 09:47:00,36.9,26.6,30.25,NNW,333,0.0,1.0,66,0.00,,---,0.00,VWS V14.01,2013-01-01 17:47:00,
2013-01-01 09:52:00,37.4,26.4,30.25,East,84,1.0,1.0,64,0.00,,---,0.00,VWS V14.01,2013-01-01 17:52:00,
2013-01-01 09:57:00,37.8,25.2,30.25,East,82,4.0,4.0,60,0.00,,---,0.00,VWS V14.01,2013-01-01 17:57:00,
2013-01-01 10:00:00,37.9,25.7,30.25,East,79,4.0,5.0,61,0.00,,---,0.00,VWS V14.01,2013-01-01 18:00:00,
2013-01-01 10:02:00,38.3,25.2,30.25,East,84,3.0,5.0,59,0.00,,---,0.00,VWS V14.01,2013-01-01 18:02:00,
2013-01-01 10:07:00,38.8,24.0,30.25,East,94,5.0,7.0,55,0.00,,---,0.00,VWS V14.01,2013-01-01 18:07:00,
2013-01-01 10:12:00,39.3,24.1,30.25,ENE,72,6.0,7.0,54,0.00,,---,0.00,VWS V14.01,2013-01-01 18:12:00,
2013-01-01 10:17:00,39.7,23.1,30.25,East,79,7.0,8.0,51,0.00,,---,0.00,VWS V14.01,2013-01-01 18:17:00,
2013-01-01 10:22:00,40.1,23.0,30.25,East,87,6.0,9.0,50,0.00,,---,0.00,VWS V14.01,2013-01-01 18:22:00,
2013-01-01 10:27:00,40.5,22.9,30.25,ENE,78,5.0,9.0,49,0.00,,---,0.00,VWS V14.01,2013-01-01 18:27:00,
2013-01-01 10:30:00,40.6,22.5,30.25,East,85,5.0,9.0,48,0.00,,---,0.00,VWS V14.01,2013-01-01 18:30:00,
2013-01-01 10:32:00,40.8,22.1,30.25,ESE,107,8.0,9.0,47,0.00,,---,0.00,VWS V14.01,2013-01-01 18:32:00,
2013-01-01 10:37:00,41.4,21.7,30.24,East,81,3.0,12.0,45,0.00,,---,0.00,VWS V14.01,2013-01-01 18:37:00,
2013-01-01 10:42:00,41.6,20.8,30.24,ESE,105,12.0,12.0,43,0.00,,---,0.00,VWS V14.01,2013-01-01 18:42:00,
2013-01-01 10:47:00,41.3,20.0,30.24,ESE,103,9.0,12.0,42,0.00,,---,0.00,VWS V14.01,2013-01-01 18:47:00,
2013-01-01 10:52:00,41.4,20.0,30.24,East,80,5.0,12.0,42,0.00,,---,0.00,VWS V14.01,2013-01-01 18:52:00,
2013-01-01 10:57:00,41.6,19.7,30.24,East,89,9.0,12.0,41,0.00,,---,0.00,VWS V14.01,2013-01-01 18:57:00,
2013-01-01 11:00:00,41.7,19.2,30.24,East,98,8.0,13.0,40,0.00,,---,0.00,VWS V14.01,2013-01-01 19:00:00,
2013-01-01 11:02:00,41.7,19.8,30.23,SE,129,6.0,12.0,41,0.00,,---,0.00,VWS V14.01,2013-01-01 19:02:00,
2013-01-01 11:07:00,41.9,19.4,30.23,East,94,12.0,13.0,40,0.00,,---,0.00,VWS V14.01,2013-01-01 19:07:00,
2013-01-01 11:12:00,41.9,19.9,30.23,East,97,8.0,13.0,41,0.00,,---,0.00,VWS V14.01,2013-01-01 19:12:00,
2013-01-01 11:17:00,41.6,19.1,30.23,ESE,105,5.0,13.0,40,0.00,,---,0.00,VWS V14.01,2013-01-01 19:17:00,
2013-01-01 11:22:00,42.0,20.0,30.23,ENE,77,5.0,16.0,41,0.00,,---,0.00,VWS V14.01,2013-01-01 19:22:00,
2013-01-01 11:27:00,42.2,20.2,30.23,East,79,7.0,16.0,41,0.00,,---,0.00,VWS V14.01,2013-01-01 19:27:00,
2013-01-01 11:30:00,42.3,19.7,30.23,East,100,6.0,16.0,40,0.00,,---,0.00,VWS V14.01,2013-01-01 19:30:00,
2013-01-01 11:32:00,42.5,19.9,30.22,East,95,7.0,12.0,40,0.00,,---,0.00,VWS V14.01,2013-01-01 19:32:00,
2013-01-01 11:37:00,42.7,19.5,30.22,ESE,112,6.0,12.0,39,0.00,,---,0.00,VWS V14.01,2013-01-01 19:37:00,
2013-01-01 11:42:00,42.8,19.6,30.22,East,82,6.0,14.0,39,0.00,,---,0.00,VWS V14.01,2013-01-01 19:42:00,
2013-01-01 11:47:00,42.9,19.1,30.22,ESE,115,8.0,14.0,38,0.00,,---,0.00,VWS V14.01,2013-01-01 19:47:00,
2013-01-01 11:52:00,43.0,19.1,30.21,East,90,6.0,14.0,38,0.00,,---,0.00,VWS V14.01,2013-01-01 19:52:00,
2013-01-01 11:57:00,43.7,19.1,30.20,East,86,6.0,14.0,37,0.00,,---,0.00,VWS V14.01,2013-01-01 19:57:00,
2013-01-01 12:00:00,43.8,18.6,30.20,SE,129,6.0,14.0,36,0.00,,---,0.00,VWS V14.01,2013-01-01 20:00:00,
2013-01-01 12:02:00,44.1,18.2,30.20,SE,124,8.0,13.0,35,0.00,,---,0.00,VWS V14.01,2013-01-01 20:02:00,
2013-01-01 12:07:00,44.1,18.2,30.20,ENE,68,8.0,14.0,35,0.00,,---,0.00,VWS V14.01,2013-01-01 20:07:00,
2013-01-01 12:12:00,44.3,17.7,30.20,ENE,75,8.0,15.0,34,0.00,,---,0.00,VWS V14.01,2013-01-01 20:12:00,
2013-01-01 12:17:00,44.3,17.7,30.19,East,85,10.0,15.0,34,0.00,,---,0.00,VWS V14.01,2013-01-01 20:17:00,
2013-01-01 12:22:00,44.5,17.2,30.19,East,88,9.0,15.0,33,0.00,,---,0.00,VWS V14.01,2013-01-01 20:22:00,
2013-01-01 12:27:00,45.4,17.3,30.18,ENE,75,12.0,17.0,32,0.00,,---,0.00,VWS V14.01,2013-01-01 20:27:00,
2013-01-01 12:30:00,45.4,16.5,30.18,ESE,106,12.0,17.0,31,0.00,,---,0.00,VWS V14.01,2013-01-01 20:30:00,
2013-01-01 12:32:00,45.4,16.5,30.18,East,81,10.0,16.0,31,0.00,,---,0.00,VWS V14.01,2013-01-01 20:32:00,
2013-01-01 12:37:00,45.6,16.0,30.18,East,79,11.0,16.0,30,0.00,,---,0.00,VWS V14.01,2013-01-01 20:37:00,
2013-01-01 12:42:00,44.9,16.1,30.18,ESE,113,14.0,16.0,31,0.00,,---,0.00,VWS V14.01,2013-01-01 20:42:00,
2013-01-01 12:47:00,45.0,16.2,30.18,ENE,75,12.0,16.0,31,0.00,,---,0.00,VWS V14.01,2013-01-01 20:47:00,
2013-01-01 12:52:00,45.2,16.4,30.17,ENE,68,9.0,16.0,31,0.00,,---,0.00,VWS V14.01,2013-01-01 20:52:00,
2013-01-01 12:57:00,46.1,16.4,30.17,SE,138,8.0,16.0,30,0.00,,---,0.00,VWS V14.01,2013-01-01 20:57:00,
2013-01-01 13:00:00,46.1,16.4,30.17,ESE,112,10.0,16.0,30,0.00,,---,0.00,VWS V14.01,2013-01-01 21:00:00,
2013-01-01 13:02:00,46.2,16.5,30.17,NE,56,9.0,16.0,30,0.00,,---,0.00,VWS V14.01,2013-01-01 21:02:00,
2013-01-01 13:07:00,46.3,16.6,30.17,ESE,108,13.0,16.0,30,0.00,,---,0.00,VWS V14.01,2013-01-01 21:07:00,
2013-01-01 13:12:00,46.2,15.7,30.17,ESE,113,9.0,16.0,29,0.00,,---,0.00,VWS V14.01,2013-01-01 21:12:00,
2013-01-01 13:17:00,45.7,15.3,30.17,SE,132,10.0,18.0,29,0.00,,---,0.00,VWS V14.01,2013-01-01 21:17:00,
2013-01-01 13:22:00,46.1,14.8,30.17,ENE,77,10.0,20.0,28,0.00,,---,0.00,VWS V14.01,2013-01-01 21:22:00,
2013-01-01 13:27:00,45.4,14.2,30.16,East,84,12.0,20.0,28,0.00,,---,0.00,VWS V14.01,2013-01-01 21:27:00,
2013-01-01 13:30:00,45.4,14.2,30.16,ENE,73,7.0,20.0,28,0.00,,---,0.00,VWS V14.01,2013-01-01 21:30:00,
2013-01-01 13:32:00,45.3,14.1,30.16,East,87,12.0,16.0,28,0.00,,---,0.00,VWS V14.01,2013-01-01 21:32:00,
2013-01-01 13:37:00,45.0,14.7,30.16,SE,130,7.0,17.0,29,0.00,,---,0.00,VWS V14.01,2013-01-01 21:37:00,
2013-01-01 13:42:00,45.7,14.5,30.16,ENE,70,14.0,17.0,28,0.00,,---,0.00,VWS V14.01,2013-01-01 21:42:00,
2013-01-01 13:47:00,45.8,14.6,30.16,East,92,14.0,17.0,28,0.00,,---,0.00,VWS V14.01,2013-01-01 21:47:00,
2013-01-01 13:52:00,46.1,14.0,30.16,East,98,13.0,18.0,27,0.00,,---,0.00,VWS V14.01,2013-01-01 21:52:00,
2013-01-01 13:57:00,45.6,13.6,30.16,ENE,68,12.0,18.0,27,0.00,,---,0.00,VWS V14.01,2013-01-01 21:57:00,
2013-01-01 14:00:00,45.5,13.5,30.16,East,82,8.0,18.0,27,0.00,,---,0.00,VWS V14.01,2013-01-01 22:00:00,
2013-01-01 14:02:00,46.0,13.9,30.16,ESE,119,10.0,18.0,27,0.00,,---,0.00,VWS V14.01,2013-01-01 22:02:00,
2013-01-01 14:07:00,46.4,14.2,30.16,ESE,104,14.0,18.0,27,0.00,,---,0.00,VWS V14.01,2013-01-01 22:07:00,
2013-01-01 14:12:00,46.6,14.4,30.16,East,85,12.0,18.0,27,0.00,,---,0.00,VWS V14.01,2013-01-01 22:12:00,
2013-01-01 14:17:00,46.4,13.4,30.16,East,98,10.0,18.0,26,0.00,,---,0.00,VWS V14.01,2013-01-01 22:17:00,
2013-01-01 14:22:00,46.3,14.2,30.15,East,84,8.0,18.0,27,0.00,,---,0.00,VWS V14.01,2013-01-01 22:22:00,
2013-01-01 14:27:00,46.6,13.6,30.15,East,84,13.0,18.0,26,0.00,,---,0.00,VWS V14.01,2013-01-01 22:27:00,
2013-01-01 14:30:00,46.6,13.6,30.15,ESE,118,9.0,19.0,26,0.00,,---,0.00,VWS V14.01,2013-01-01 22:30:00,
2013-01-01 14:32:00,46.3,14.2,30.15,East,93,5.0,15.0,27,0.00,,---,0.00,VWS V14.01,2013-01-01 22:32:00,
2013-01-01 14:37:00,46.3,14.2,30.15,ENE,77,13.0,15.0,27,0.00,,---,0.00,VWS V14.01,2013-01-01 22:37:00,
2013-01-01 14:42:00,46.3,14.2,30.15,East,94,8.0,15.0,27,0.00,,---,0.00,VWS V14.01,2013-01-01 22:42:00,
2013-01-01 14:47:00,46.2,14.1,30.16,East,98,6.0,15.0,27,0.00,,---,0.00,VWS V14.01,2013-01-01 22:47:00,
2013-01-01 14:52:00,46.1,14.0,30.15,East,90,9.0,16.0,27,0.00,,---,0.00,VWS V14.01,2013-01-01 22:52:00,
2013-01-01 14:57:00,46.0,13.9,30.15,ENE,74,9.0,16.0,27,0.00,,---,0.00,VWS V14.01,2013-01-01 22:57:00,
2013-01-01 15:00:00,46.0,13.1,30.15,East,80,11.0,16.0,26,0.00,,---,0.00,VWS V14.01,2013-01-01 23:00:00,
2013-01-01 15:02:00,45.9,13.8,30.16,NE,54,7.0,15.0,27,0.00,,---,0.00,VWS V14.01,2013-01-01 23:02:00,
2013-01-01 15:07:00,46.3,13.3,30.15,East,92,14.0,17.0,26,0.00,,---,0.00,VWS V14.01,2013-01-01 23:07:00,
2013-01-01 15:12:00,46.8,13.7,30.15,ENE,58,10.0,17.0,26,0.00,,---,0.00,VWS V14.01,2013-01-01 23:12:00,
2013-01-01 15:17:00,47.0,13.9,30.15,East,82,13.0,19.0,26,0.00,,---,0.00,VWS V14.01,2013-01-01 23:17:00,
2013-01-01 15:22:00,47.2,13.2,30.15,ESE,109,8.0,19.0,25,0.00,,---,0.00,VWS V14.01,2013-01-01 23:22:00,
2013-01-01 15:27:00,47.1,13.1,30.15,East,91,9.0,19.0,25,0.00,,---,0.00,VWS V14.01,2013-01-01 23:27:00,
2013-01-01 15:30:00,47.0,13.0,30.15,ESE,105,11.0,19.0,25,0.00,,---,0.00,VWS V14.01,2013-01-01 23:30:00,
2013-01-01 15:32:00,46.8,12.9,30.15,ESE,109,11.0,18.0,25,0.00,,---,0.00,VWS V14.01,2013-01-01 23:32:00,
2013-01-01 15:37:00,46.6,12.7,30.15,ENE,78,13.0,21.0,25,0.00,,---,0.00,VWS V14.01,2013-01-01 23:37:00,
2013-01-01 15:42:00,46.5,12.6,30.15,ENE,78,15.0,21.0,25,0.00,,---,0.00,VWS V14.01,2013-01-01 23:42:00,
2013-01-01 15:47:00,46.4,12.5,30.16,ESE,108,9.0,21.0,25,0.00,,---,0.00,VWS V14.01,2013-01-01 23:47:00,
2013-01-01 15:52:00,46.2,13.2,30.16,East,100,12.0,21.0,26,0.00,,---,0.00,VWS V14.01,2013-01-01 23:52:00,
2013-01-01 15:57:00,46.0,13.1,30.16,ESE,107,12.0,21.0,26,0.00,,---,0.00,VWS V14.01,2013-01-01 23:57:00,
2013-01-01 16:00:00,46.0,13.1,30.16,ESE,111,8.0,21.0,26,0.00,,---,0.00,VWS V14.01,2013-01-02 00:00:00,
2013-01-01 16:02:00,45.9,13.0,30.16,ENE,78,16.0,19.0,26,0.00,,---,0.00,VWS V14.01,2013-01-02 00:02:00,
2013-01-01 16:07:00,45.4,12.5,30.16,East,86,10.0,19.0,26,0.00,,---,0.00,VWS V14.01,2013-01-02 00:07:00,
2013-01-01 16:12:00,44.9,12.1,30.16,ENE,67,9.0,19.0,26,0.00,,---,0.00,VWS V14.01,2013-01-02 00:12:00,
2013-01-01 16:16:00,44.4,12.5,30.16,East,96,9.0,19.0,27,0.00,,---,0.00,VWS V14.01,2013-01-02 00:16:00,
2013-01-01 16:21:00,44.2,12.4,30.16,ESE,109,7.0,19.0,27,0.00,,---,0.00,VWS V14.01,2013-01-02 00:21:00,
2013-01-01 16:26:00,43.9,12.9,30.16,East,98,6.0,19.0,28,0.00,,---,0.00,VWS V14.01,2013-01-02 00:26:00,
2013-01-01 16:30:00,43.8,12.8,30.16,ENE,78,5.0,19.0,28,0.00,,---,0.00,VWS V14.01,2013-01-02 00:30:00,
2013-01-01 16:32:00,43.5,12.6,30.16,ESE,110,8.0,10.0,28,0.00,,---,0.00,VWS V14.01,2013-01-02 00:32:00,
2013-01-01 16:36:00,43.1,12.2,30.16,ESE,112,4.0,11.0,28,0.00,,---,0.00,VWS V14.01,2013-01-02 00:36:00,
2013-01-01 16:41:00,42.7,12.7,30.16,ENE,72,7.0,11.0,29,0.00,,---,0.00,VWS V14.01,2013-01-02 00:41:00,
2013-01-01 16:46:00,42.2,13.0,30.16,ESE,103,6.0,11.0,30,0.00,,---,0.00,VWS V14.01,2013-01-02 00:46:00,
2013-01-01 16:51:00,41.7,13.3,30.16,SE,131,4.0,11.0,31,0.00,,---,0.00,VWS V14.01,2013-01-02 00:51:00,
2013-01-01 16:56:00,41.3,13.0,30.16,ESE,112,4.0,11.0,31,0.00,,---,0.00,VWS V14.01,2013-01-02 00:56:00,
2013-01-01 17:00:00,41.2,12.9,30.16,ESE,108,4.0,11.0,31,0.00,,---,0.00,VWS V14.01,2013-01-02 01:00:00,
2013-01-01 17:01:00,41.1,13.5,30.16,ESE,105,4.0,9.0,32,0.00,,---,0.00,VWS V14.01,2013-01-02 01:01:00,
2013-01-01 17:06:00,41.0,13.4,30.17,East,98,4.0,9.0,32,0.00,,---,0.00,VWS V14.01,2013-01-02 01:06:00,
2013-01-01 17:11:00,40.8,13.2,30.17,ENE,73,5.0,9.0,32,0.00,,---,0.00,VWS V14.01,2013-01-02 01:11:00,
2013-01-01 17:16:00,40.6,13.1,30.17,ESE,105,8.0,9.0,32,0.00,,---,0.00,VWS V14.01,2013-01-02 01:16:00,
2013-01-01 17:21:00,40.2,12.7,30.17,ESE,115,2.0,9.0,32,0.00,,---,0.00,VWS V14.01,2013-01-02 01:21:00,
2013-01-01 17:26:00,39.5,12.8,30.17,SE,127,4.0,9.0,33,0.00,,---,0.00,VWS V14.01,2013-01-02 01:26:00,
2013-01-01 17:30:00,39.3,12.6,30.17,ESE,109,3.0,9.0,33,0.00,,---,0.00,VWS V14.01,2013-01-02 01:30:00,
2013-01-01 17:31:00,39.0,12.4,30.17,SE,127,4.0,6.0,33,0.00,,---,0.00,VWS V14.01,2013-01-02 01:31:00,
2013-01-01 17:36:00,38.5,12.6,30.17,ESE,102,3.0,6.0,34,0.00,,---,0.00,VWS V14.01,2013-01-02 01:36:00,
2013-01-01 17:41:00,37.8,12.0,30.17,ESE,105,3.0,6.0,34,0.00,,---,0.00,VWS V14.01,2013-01-02 01:41:00,
2013-01-01 17:46:00,36.7,12.3,30.18,ESE,109,2.0,6.0,36,0.00,,---,0.00,VWS V14.01,2013-01-02 01:46:00,
2013-01-01 17:51:00,36.0,12.3,30.18,ENE,77,1.0,6.0,37,0.00,,---,0.00,VWS V14.01,2013-01-02 01:51:00,
2013-01-01 17:56:00,35.4,12.3,30.18,NE,53,3.0,6.0,38,0.00,,---,0.00,VWS V14.01,2013-01-02 01:56:00,
2013-01-01 18:00:00,35.1,12.1,30.18,NE,43,1.0,6.0,38,0.00,,---,0.00,VWS V14.01,2013-01-02 02:00:00,
2013-01-01 18:01:00,34.7,12.3,30.18,East,86,1.0,2.0,39,0.00,,---,0.00,VWS V14.01,2013-01-02 02:01:00,
2013-01-01 18:06:00,35.1,12.6,30.18,East,94,0.0,6.0,39,0.00,,---,0.00,VWS V14.01,2013-01-02 02:06:00,
2013-01-01 18:11:00,34.9,12.5,30.19,ESE,113,1.0,6.0,39,0.00,,---,0.00,VWS V14.01,2013-01-02 02:11:00,
2013-01-01 18:16:00,34.1,12.3,30.18,ESE,119,1.0,6.0,40,0.00,,---,0.00,VWS V14.01,2013-01-02 02:16:00,
2013-01-01 18:21:00,33.6,12.4,30.19,ESE,115,0.0,6.0,41,0.00,,---,0.00,VWS V14.01,2013-01-02 02:21:00,
2013-01-01 18:26:00,33.2,13.1,30.19,ESE,115,0.0,6.0,43,0.00,,---,0.00,VWS V14.01,2013-01-02 02:26:00,
2013-01-01 18:30:00,33.1,13.1,30.19,ESE,115,0.0,6.0,43,0.00,,---,0.00,VWS V14.01,2013-01-02 02:30:00,
2013-01-01 18:31:00,32.8,12.8,30.19,ESE,115,0.0,0.0,43,0.00,,---,0.00,VWS V14.01,2013-01-02 02:31:00,
2013-01-01 18:36:00,32.5,12.0,30.20,ESE,115,0.0,1.0,42,0.00,,---,0.00,VWS V14.01,2013-01-02 02:36:00,
2013-01-01 18:41:00,32.3,12.3,30.20,ESE,114,0.0,1.0,43,0.00,,---,0.00,VWS V14.01,2013-01-02 02:41:00,
2013-01-01 18:46:00,32.2,12.2,30.20,ESE,117,1.0,2.0,43,0.00,,---,0.00,VWS V14.01,2013-01-02 02:46:00,
2013-01-01 18:51:00,32.3,12.3,30.20,ESE,113,1.0,2.0,43,0.00,,---,0.00,VWS V14.01,2013-01-02 02:51:00,
2013-01-01 18:56:00,32.4,12.4,30.20,East,98,0.0,2.0,43,0.00,,---,0.00,VWS V14.01,2013-01-02 02:56:00,
2013-01-01 19:00:00,32.5,12.5,30.20,ESE,111,1.0,2.0,43,0.00,,---,0.00,VWS V14.01,2013-01-02 03:00:00,
2013-01-01 19:01:00,32.5,12.5,30.20,ESE,115,1.0,2.0,43,0.00,,---,0.00,VWS V14.01,2013-01-02 03:01:00,
2013-01-01 19:06:00,32.6,13.1,30.20,ESE,120,0.0,2.0,44,0.00,,---,0.00,VWS V14.01,2013-01-02 03:06:00,
2013-01-01 19:11:00,32.8,12.8,30.20,SE,124,2.0,2.0,43,0.00,,---,0.00,VWS V14.01,2013-01-02 03:11:00,
2013-01-01 19:16:00,33.1,12.5,30.20,SE,134,0.0,3.0,42,0.00,,---,0.00,VWS V14.01,2013-01-02 03:16:00,
2013-01-01 19:21:00,33.1,12.0,30.21,SE,134,0.0,3.0,41,0.00,,---,0.00,VWS V14.01,2013-01-02 03:21:00,
2013-01-01 19:26:00,33.1,12.0,30.21,SE,133,1.0,3.0,41,0.00,,---,0.00,VWS V14.01,2013-01-02 03:26:00,
2013-01-01 19:30:00,33.1,12.0,30.21,SE,134,1.0,3.0,41,0.00,,---,0.00,VWS V14.01,2013-01-02 03:30:00,
2013-01-01 19:31:00,33.1,12.0,30.21,SE,136,1.0,2.0,41,0.00,,---,0.00,VWS V14.01,2013-01-02 03:31:00,
2013-01-01 19:36:00,33.0,12.4,30.21,ESE,116,1.0,2.0,42,0.00,,---,0.00,VWS V14.01,2013-01-02 03:36:00,
2013-01-01 19:41:00,32.9,11.8,30.21,ESE,112,2.0,2.0,41,0.00,,---,0.00,VWS V14.01,2013-01-02 03:41:00,
2013-01-01 19:46:00,33.1,12.0,30.21,SE,129,2.0,2.0,41,0.00,,---,0.00,VWS V14.01,2013-01-02 03:46:00,
2013-01-01 19:51:00,33.4,11.1,30.21,ESE,108,0.0,3.0,39,0.00,,---,0.00,VWS V14.01,2013-01-02 03:51:00,
2013-01-01 19:56:00,33.8,10.9,30.21,East,99,2.0,3.0,38,0.00,,---,0.00,VWS V14.01,2013-01-02 03:56:00,
2013-01-01 20:00:00,34.0,11.1,30.22,East,81,0.0,4.0,38,0.00,,---,0.00,VWS V14.01,2013-01-02 04:00:00,
2013-01-01 20:01:00,34.2,11.3,30.22,East,92,2.0,3.0,38,0.00,,---,0.00,VWS V14.01,2013-01-02 04:01:00,
2013-01-01 20:06:00,34.2,10.7,30.22,NNE,33,0.0,3.0,37,0.00,,---,0.00,VWS V14.01,2013-01-02 04:06:00,
2013-01-01 20:11:00,33.7,10.8,30.22,East,94,0.0,3.0,38,0.00,,---,0.00,VWS V14.01,2013-01-02 04:11:00,
2013-01-01 20:16:00,33.2,10.9,30.22,SSE,150,1.0,3.0,39,0.00,,---,0.00,VWS V14.01,2013-01-02 04:16:00,
2013-01-01 20:21:00,32.4,10.2,30.22,SE,139,0.0,3.0,39,0.00,,---,0.00,VWS V14.01,2013-01-02 04:21:00,
2013-01-01 20:26:00,32.3,10.7,30.22,East,89,0.0,3.0,40,0.00,,---,0.00,VWS V14.01,2013-01-02 04:26:00,
2013-01-01 20:30:00,32.4,10.2,30.22,ENE,70,2.0,4.0,39,0.00,,---,0.00,VWS V14.01,2013-01-02 04:30:00,
2013-01-01 20:31:00,33.6,10.7,30.22,East,84,0.0,7.0,38,0.00,,---,0.00,VWS V14.01,2013-01-02 04:31:00,
2013-01-01 20:36:00,34.4,10.8,30.23,East,79,0.0,7.0,37,0.00,,---,0.00,VWS V14.01,2013-01-02 04:36:00,
2013-01-01 20:41:00,34.3,10.8,30.23,East,79,0.0,7.0,37,0.00,,---,0.00,VWS V14.01,2013-01-02 04:41:00,
2013-01-01 20:46:00,33.6,10.1,30.23,East,81,0.0,7.0,37,0.00,,---,0.00,VWS V14.01,2013-01-02 04:46:00,
2013-01-01 20:51:00,33.7,10.8,30.23,NE,56,3.0,7.0,38,0.00,,---,0.00,VWS V14.01,2013-01-02 04:51:00,
2013-01-01 20:56:00,34.4,10.2,30.23,East,84,0.0,7.0,36,0.00,,---,0.00,VWS V14.01,2013-01-02 04:56:00,
2013-01-01 21:00:00,34.8,10.6,30.23,ESE,105,2.0,2.0,36,0.00,,---,0.00,VWS V14.01,2013-01-02 05:00:00,
2013-01-01 21:02:00,35.0,10.8,30.23,SW,214,2.0,2.0,36,0.00,,---,0.00,VWS V14.01,2013-01-02 05:02:00,
2013-01-01 21:03:00,34.9,10.7,30.24,WSW,248,0.0,2.0,36,0.00,,---,0.00,VWS V14.01,2013-01-02 05:03:00,
2013-01-01 21:08:00,33.1,10.3,30.23,SSE,150,0.0,3.0,38,0.00,,---,0.00,VWS V14.01,2013-01-02 05:08:00,
2013-01-01 21:13:00,32.7,11.1,30.24,South,186,0.0,3.0,40,0.00,,---,0.00,VWS V14.01,2013-01-02 05:13:00,
2013-01-01 21:18:00,33.8,10.9,30.24,East,86,5.0,6.0,38,0.00,,---,0.00,VWS V14.01,2013-01-02 05:18:00,
2013-01-01 21:23:00,34.9,10.7,30.24,ESE,105,2.0,6.0,36,0.00,,---,0.00,VWS V14.01,2013-01-02 05:23:00,
2013-01-01 21:28:00,35.2,10.3,30.24,ESE,105,0.0,6.0,35,0.00,,---,0.00,VWS V14.01,2013-01-02 05:28:00,
2013-01-01 21:30:00,35.2,10.3,30.24,ESE,105,0.0,6.0,35,0.00,,---,0.00,VWS V14.01,2013-01-02 05:30:00,
2013-01-01 21:33:00,35.0,10.8,30.24,SE,145,1.0,3.0,36,0.00,,---,0.00,VWS V14.01,2013-01-02 05:33:00,
2013-01-01 21:38:00,33.9,10.4,30.24,SSE,147,1.0,4.0,37,0.00,,---,0.00,VWS V14.01,2013-01-02 05:38:00,
2013-01-01 21:43:00,32.4,10.2,30.24,SSE,158,1.0,4.0,39,0.00,,---,0.00,VWS V14.01,2013-01-02 05:43:00,
2013-01-01 21:48:00,31.5,10.5,30.24,SSW,195,2.0,4.0,41,0.00,,---,0.00,VWS V14.01,2013-01-02 05:48:00,
2013-01-01 21:53:00,30.9,10.5,30.24,SSW,204,0.0,4.0,42,0.00,,---,0.00,VWS V14.01,2013-01-02 05:53:00,
2013-01-01 21:58:00,30.5,10.7,30.24,SSW,197,0.0,4.0,43,0.00,,---,0.00,VWS V14.01,2013-01-02 05:58:00,
2013-01-01 22:00:00,30.5,10.7,30.24,SSW,197,0.0,4.0,43,0.00,,---,0.00,VWS V14.01,2013-01-02 06:00:00,
2013-01-01 22:03:00,30.2,10.4,30.25,SSW,200,0.0,0.0,43,0.00,,---,0.00,VWS V14.01,2013-01-02 06:03:00,
2013-01-01 22:08:00,29.7,11.0,30.25,SSW,200,0.0,1.0,45,0.00,,---,0.00,VWS V14.01,2013-01-02 06:08:00,
2013-01-01 22:13:00,29.0,10.8,30.25,SW,227,0.0,1.0,46,0.00,,---,0.00,VWS V14.01,2013-01-02 06:13:00,
2013-01-01 22:18:00,28.3,11.1,30.25,SW,219,0.0,1.0,48,0.00,,---,0.00,VWS V14.01,2013-01-02 06:18:00,
2013-01-01 22:23:00,28.0,10.9,30.25,SW,218,0.0,1.0,48,0.00,,---,0.00,VWS V14.01,2013-01-02 06:23:00,
2013-01-01 22:28:00,27.1,10.9,30.25,SW,218,0.0,1.0,50,0.00,,---,0.00,VWS V14.01,2013-01-02 06:28:00,
2013-01-01 22:30:00,27.1,10.9,30.25,SW,217,0.0,1.0,50,0.00,,---,0.00,VWS V14.01,2013-01-02 06:30:00,
2013-01-01 22:33:00,26.3,11.1,30.25,SW,218,0.0,0.0,52,0.00,,---,0.00,VWS V14.01,2013-01-02 06:33:00,
2013-01-01 22:38:00,25.5,10.8,30.25,SW,218,0.0,0.0,53,0.00,,---,0.00,VWS V14.01,2013-01-02 06:38:00,
2013-01-01 22:43:00,24.8,11.3,30.25,SW,218,0.0,0.0,56,0.00,,---,0.00,VWS V14.01,2013-01-02 06:43:00,
2013-01-01 22:48:00,24.4,11.4,30.24,SW,218,0.0,0.0,57,0.00,,---,0.00,VWS V14.01,2013-01-02 06:48:00,
2013-01-01 22:53:00,23.9,11.3,30.24,WNW,291,1.0,2.0,58,0.00,,---,0.00,VWS V14.01,2013-01-02 06:53:00,
2013-01-01 22:58:00,24.1,11.9,30.24,WNW,291,0.0,2.0,59,0.00,,---,0.00,VWS V14.01,2013-01-02 06:58:00,
2013-01-01 23:00:00,24.2,11.9,30.24,WNW,290,0.0,2.0,59,0.00,,---,0.00,VWS V14.01,2013-01-02 07:00:00,
2013-01-01 23:03:00,24.4,11.8,30.25,WNW,291,0.0,1.0,58,0.00,,---,0.00,VWS V14.01,2013-01-02 07:03:00,
2013-01-01 23:08:00,24.5,11.9,30.25,WNW,290,0.0,1.0,58,0.00,,---,0.00,VWS V14.01,2013-01-02 07:08:00,
2013-01-01 23:13:00,24.6,11.9,30.25,WNW,290,0.0,1.0,58,0.00,,---,0.00,VWS V14.01,2013-01-02 07:13:00,
2013-01-01 23:18:00,24.6,11.9,30.25,WNW,290,0.0,1.0,58,0.00,,---,0.00,VWS V14.01,2013-01-02 07:18:00,
2013-01-01 23:23:00,24.7,12.0,30.25,WNW,291,0.0,1.0,58,0.00,,---,0.00,VWS V14.01,2013-01-02 07:23:00,
2013-01-01 23:28:00,24.5,11.5,30.25,WNW,290,0.0,1.0,57,0.00,,---,0.00,VWS V14.01,2013-01-02 07:28:00,
2013-01-01 23:30:00,24.4,11.4,30.25,WNW,291,0.0,1.0,57,0.00,,---,0.00,VWS V14.01,2013-01-02 07:30:00,
2013-01-01 23:33:00,24.2,11.6,30.24,WNW,288,0.0,0.0,58,0.00,,---,0.00,VWS V14.01,2013-01-02 07:33:00,
2013-01-01 23:38:00,24.0,11.8,30.24,WNW,288,0.0,0.0,59,0.00,,---,0.00,VWS V14.01,2013-01-02 07:38:00,
2013-01-01 23:43:00,24.0,11.8,30.24,SW,224,0.0,0.0,59,0.00,,---,0.00,VWS V14.01,2013-01-02 07:43:00,
2013-01-01 23:48:00,24.0,11.8,30.23,WSW,240,0.0,0.0,59,0.00,,---,0.00,VWS V14.01,2013-01-02 07:48:00,
2013-01-01 23:53:00,24.2,11.9,30.24,WSW,243,0.0,0.0,59,0.00,,---,0.00,VWS V14.01,2013-01-02 07:53:00,
2013-01-01 23:58:00,24.4,11.8,30.23,SW,236,0.0,0.0,58,0.00,,---,0.00,VWS V14.01,2013-01-02 07:58:00,